Content
SEND FEEDBACK

Daily
Averages
Monthly
Summary
United States of America

FARMINGDALE, SOUTH DAKOTA


Home > North America > United States > South Dakota
Elevation: 2990 feet     Latitude: 43 59N     Longitude: 102 54W

WEATHER
 
SELECT A DAY
Number of Records: 200,194;   Date Range: 1/1/95 - 7/20/14
 
SHARE

PRINT THIS DATA

[ ← Previous Day ]
WEATHER ALMANAC - JANUARY 31, 2013
[ Next Day → ]
[ °C ]   °F
Weather ElementAverageHighLow
Temperature6.8 °F14 °F (12:11 am) (7:52 am)
Dewpoint1.2 °F10.4 °F (12:11 am)-7.1 °F (9:52 am)
Humidity77.8 %86 % (12:11 am)64 % (2:52 pm)
Barometer30.15 in30.43 in (10:52 am)29.86 in (12:11 am)
Wind Speed19.1 mph31.1 mph (12:11 am)
Wind Gust42.6 mph (12:52 am)
Weather ElementAverage
Visibility5.8 mi
Wind DirectionWNW (285.6 °)

Weather ElementTotal
Precipitation0.03 in
Heating Degree Days58 (Base 65)
Averaged from 41 records on January 31, 2013
WEATHER CONDITIONS BREAKOUT
WIND DIRECTION BREAKOUT
WEATHER BY HOUR - JANUARY 31, 2013
[ °C ]   °F
Local TimeTemperatureDewpointHumidityBarometerVisibilityWind DirectionWind SpeedGust SpeedPrecipitationEventsConditions
12:11 AM14.0 °F10.4 °F86 %29.86 in2.0 miNNW (340°)31.1 mph39.1 mph0.00 inSnowLight Snow
12:25 AM14.0 °F8.6 °F79 %29.87 in1.5 miNorth (350°)26.5 mph39.1 mph0.01 inSnowLight Snow
12:36 AM12.2 °F8.6 °F85 %29.88 in2.5 miNNW (340°)25.3 mph39.1 mph0.01 inSnowLight Snow
12:52 AM12.0 °F8.1 °F84 %30.06 in2.5 miNorth (350°)31.1 mph42.6 mph0.01 inSnowLight Snow
1:06 AM12.2 °F6.8 °F79 %29.88 in3.0 miNorth (350°)29.9 mph38.0 mph0.00 inSnowLight Snow
1:16 AM12.2 °F6.8 °F79 %29.89 in1.8 miNorth (350°)27.6 mph38.0 mph0.00 inSnowLight Snow
1:28 AM10.4 °F6.8 °F85 %29.91 in2.5 miNNW (340°)28.8 mph34.5 mph0.00 inSnowLight Snow
1:52 AM10.9 °F5.0 °F77 %30.09 in4.0 miNNW (340°)25.3 mph39.1 mph0.00 inSnowLight Snow
2:00 AM10.4 °F5.0 °F79 %29.93 in7.0 miNorth (350°)26.5 mph32.2 mph0.00 inSnowLight Snow
2:30 AM8.6 °F5.0 °F85 %29.93 in1.8 miNorth (350°)26.5 mph35.7 mph0.00 inSnowLight Snow
2:44 AM8.6 °F3.2 °F79 %29.94 in2.5 miNorth (350°)25.3 mph33.4 mph0.00 inSnowLight Snow
2:52 AM8.1 °F3.0 °F80 %30.13 in4.0 miNNW (340°)24.2 mph31.1 mph0.00 inSnowLight Snow
3:06 AM8.6 °F3.2 °F79 %29.96 in2.5 miNorth (350°)25.3 mph33.4 mph0.00 inSnowLight Snow
3:28 AM8.6 °F3.2 °F79 %29.97 in2.0 miNorth (350°)31.1 mph39.1 mph0.00 inSnowLight Snow
3:35 AM6.8 °F1.4 °F79 %29.97 in1.2 miNNW (340°)28.8 mph39.1 mph0.00 inSnowLight Snow
3:52 AM6.1 °F1.0 °F80 %30.17 in1.8 miNNW (340°)27.6 mph36.8 mph0.00 inSnowLight Snow
4:11 AM6.8 °F1.4 °F79 %29.99 in2.0 miNNW (340°)26.5 mph36.8 mph0.00 inSnowLight Snow
4:52 AM5.0 °F0.0 °F80 %30.20 in2.0 miNorth (350°)26.5 mph38.0 mph0.00 inSnowLight Snow
5:24 AM6.8 °F1.4 °F79 %30.03 in2.0 miNorth (350°)27.6 mph35.7 mph0.00 inSnowLight Snow
5:34 AM5.0 °F-0.4 °F78 %30.04 in1.8 miNorth (350°)27.6 mph36.8 mph0.00 inSnowLight Snow
5:43 AM5.0 °F-0.4 °F78 %30.05 in2.5 miNorth (350°)25.3 mph33.4 mph0.00 inSnowLight Snow
5:52 AM5.0 °F0.0 °F80 %30.25 in2.5 miNNW (340°)24.2 mph32.2 mph0.00 inSnowLight Snow
5:56 AM5.0 °F-0.4 °F78 %30.06 in3.0 miNNW (340°)24.2 mph32.2 mph0.00 inSnowLight Snow
6:52 AM1.9 °F-2.9 °F80 %30.29 in8.0 miNorth (350°)23.0 mph0.00 inOvercast
7:52 AM0.0 °F-6.0 °F76 %30.34 in10.0 miNorth (360°)23.0 mph31.1 mphOvercast
8:52 AM1.0 °F-6.0 °F72 %30.37 in10.0 miNorth (360°)24.2 mphOvercast
9:52 AM0.0 °F-7.1 °F72 %30.41 in10.0 miNorth (360°)12.7 mph21.9 mphMostly Cloudy
10:52 AM1.0 °F-6.0 °F72 %30.43 in10.0 miNorth (10°)10.4 mphMostly Cloudy
11:52 AM3.9 °F-4.0 °F70 %30.39 in10.0 miNorth (360°)10.4 mphOvercast
12:52 PM6.1 °F-2.9 °F67 %30.37 in10.0 miNorth (360°)11.5 mphOvercast
1:52 PM7.0 °F-2.0 °F67 %30.36 in10.0 miNorth (360°)4.6 mphOvercast
2:52 PM8.1 °F-2.0 °F64 %30.36 in10.0 miCalmOvercast
3:52 PM7.0 °F-0.9 °F70 %30.35 in10.0 miSSE (160°)4.6 mphOvercast
4:52 PM3.9 °F-2.0 °F76 %30.35 in10.0 miSE (130°)4.6 mphScattered Clouds
5:52 PM5.0 °F0.0 °F80 %30.35 in10.0 miSE (130°)4.6 mphOvercast
6:52 PM5.0 °F-0.9 °F76 %30.34 in10.0 miSE (140°)4.6 mphOvercast
7:52 PM6.1 °F0.0 °F76 %30.34 in10.0 miSE (140°)5.8 mphOvercast
8:52 PM6.1 °F1.0 °F80 %30.32 in10.0 miSE (130°)4.6 mphOvercast
9:52 PM3.0 °F-0.9 °F84 %30.31 in10.0 miSE (140°)5.8 mphOvercast
10:52 PM6.1 °F1.0 °F80 %30.28 in10.0 miSE (140°)3.5 mphOvercast
11:52 PM7.0 °F1.9 °F80 %30.25 in10.0 miSE (130°)3.5 mphOvercast
Hourly data recorded from KRAP, located miles away from Farmingdale, South Dakota







STORIES FROM OUR PARTNERS